Tracking 28790 objects as of 19-Apr-2024
HD Live streaming from Space Station
objects crossing your sky now

STARLINK-2659

Track STARLINK-2659 now!
10-day predictions
STARLINK-2659 is classified as:


NORAD ID: 48467
Int'l Code: 2021-040AR
Perigee: 553.2 km
Apogee: 555.5 km
Inclination: 53.1 °
Period: 95.6 minutes
Semi major axis: 6925 km
RCS: Unknown
Launch date: May 9, 2021
Source: United States (US)
Launch site: AIR FORCE EASTERN TEST RANGE (AFETR)
Your satellite tracking list
Your tracking list is empty




NASA's NSSDC Master Catalog

Two Line Element Set (TLE):
1 48467U 21040AR  24109.05346047  .00003543  00000-0  25666-3 0  9994
2 48467  53.0541  51.9999 0001678 118.5436 241.5722 15.06396169162403
Source of the keplerian elements: AFSPC